Wetbulb
67.27 67.84 67.13 66.11 65.40 65.47 65.31 65.41 65.08 64.92 65.07 64.57 64.02 64.53 64.39 63.64 64.26 63.65 62.80 62.73 63.54 64.74 64.99 63.77 63.61 63.56 63.39 63.26 63.22 64.00 64.62 64.49
65.29 66.17 66.36 65.03 64.38 65.48 64.67 64.51 63.79 63.16 61.97 61.73 61.83 62.00 61.71 61.94 63.27 62.43 61.91 62.12 62.54 63.00 62.61 62.49 62.66 62.56 62.04 61.45 62.44 63.13 63.47 63.44
64.49 64.57 64.92 64.80 65.01 64.50 63.56 62.95 61.58 60.85 60.58 59.41 59.18 59.40 59.86 60.67 60.21 60.31 60.34 60.24 60.98 61.45 61.46 61.51 61.97 61.06 60.58 60.64 61.51 61.82 61.90 62.48
63.50 64.16 63.05 62.82 61.52 61.56 61.29 59.88 59.97 60.02 59.47 58.86 58.33 58.17 57.14 57.16 57.28 56.98 56.87 57.34 58.15 58.90 58.84 59.04 60.21 60.43 60.32 60.31 60.67 61.05 60.85 60.93
61.38 59.94 59.98 60.80 60.24 59.28 58.93 58.91 59.08 58.85 58.30 57.49 56.93 55.80 55.42 55.19 55.25 54.52 54.71 54.41 56.07 57.53 58.18 58.76 59.30 59.23 59.01 59.22 59.62 59.70 59.90 59.74
59.27 59.17 60.00 59.55 59.10 58.72 58.80 58.32 58.22 57.42 56.71 56.61 55.80 54.41 53.81 53.74 53.46 53.18 53.13 53.21 54.07 55.66 56.68 57.81 58.34 58.29 58.38 57.98 58.25 58.09 58.18 58.09
58.54 57.27 58.80 58.50 58.52 58.40 58.58 57.95 57.12 56.71 55.89 55.30 54.83 53.45 52.34 52.42 52.05 51.77 51.49 51.65 52.43 53.71 55.67 56.37 56.64 57.05 56.71 56.07 55.04 55.07 55.76 56.51
57.58 56.08 58.25 58.38 58.18 58.70 57.74 57.06 56.29 55.77 55.14 54.37 53.60 52.33 51.58 50.92 50.73 50.24 49.79 50.14 50.78 52.40 54.38 55.37 55.28 54.16 52.94 53.27 52.18 52.14 52.07 52.44
56.16 55.49 58.08 57.85 57.83 57.53 56.61 56.03 55.40 54.74 54.03 53.93 52.41 50.93 50.56 50.29 49.55 48.68 48.48 49.09 50.37 52.07 53.09 54.20 52.67 50.88 50.31 49.87 49.13 49.11 48.91 49.14
55.79 56.89 57.32 57.27 56.79 56.35 55.58 55.04 54.50 53.90 53.59 52.91 51.37 49.57 49.11 49.02 48.57 47.98 48.35 49.20 49.86 51.26 52.10 50.99 50.00 48.84 47.48 47.28 47.06 47.16 47.17 47.43
56.77 57.11 56.65 56.14 55.87 55.62 55.11 54.57 53.51 52.97 52.77 51.72 50.48 48.71 48.15 48.07 47.90 47.71 48.50 48.98 49.48 49.40 49.38 49.61 46.99 46.38 45.45 45.51 45.49 45.28 45.75 46.03
56.80 56.60 56.31 55.86 55.09 54.27 53.83 53.11 51.91 51.84 51.20 50.38 49.47 48.16 47.24 47.30 47.22 47.38 48.07 48.20 47.91 48.26 47.01 47.26 46.59 45.25 43.59 43.35 43.96 44.12 44.59 44.83
55.55 55.68 55.53 54.76 53.71 52.69 52.03 51.04 50.30 49.66 49.79 49.49 48.98 47.89 47.13 46.97 46.58 46.82 47.30 47.77 47.28 47.44 46.45 45.20 43.86 45.26 43.67 42.66 42.45 43.15 42.95 42.90
55.47 55.63 55.19 54.87 54.55 54.06 53.58 51.63 50.66 49.48 48.71 48.29 48.05 47.50 47.00 46.28 46.37 45.91 46.13 46.07 46.52 46.32 46.27 43.96 43.76 45.70 44.90 43.94 40.20 40.55 41.22 41.40
55.42 55.52 55.30 55.24 55.01 53.78 52.68 50.87 49.17 47.57 46.91 46.82 46.96 46.73 46.44 46.31 46.12 45.86 45.61 46.03 45.56 45.99 46.12 45.61 43.15 43.18 43.94 45.71 42.03 42.32 40.17 41.30
55.85 55.55 55.41 55.51 54.84 53.83 52.21 51.18 48.79 48.98 47.57 46.92 46.36 46.65 45.55 45.90 45.80 45.95 45.45 45.23 44.86 44.69 44.69 45.17 44.67 42.42 42.61 42.34 42.70 43.17 40.51 37.15
55.38 55.12 55.32 55.55 54.54 54.68 53.44 52.31 51.85 49.86 47.35 46.30 46.07 46.04 45.52 44.91 45.55 45.80 45.51 45.01 44.64 44.13 43.68 43.71 44.09 42.99 42.82 41.78 41.93 41.37 41.66 40.28
55.26 54.37 54.49 55.22 54.82 54.43 53.73 53.21 51.64 48.33 46.36 45.55 45.34 45.13 44.65 44.99 44.50 45.26 45.62 44.73 44.06 43.60 43.61 43.51 42.86 42.43 42.50 41.97 41.61 40.67 39.36 39.57
54.41 53.98 53.69 54.62 54.58 54.27 54.16 53.86 52.91 50.67 47.48 46.85 45.54 44.83 44.36 44.32 44.69 44.32 44.50 44.72 43.81 43.75 43.27 42.55 42.33 41.55 41.62 40.87 41.34 40.60 40.42 39.82
53.96 53.48 53.70 53.87 54.28 54.32 54.42 54.28 53.15 52.11 49.70 48.08 46.91 47.00 46.43 45.73 44.60 44.55 43.97 44.20 43.63 43.46 42.54 42.31 42.08 41.75 41.13 40.98 40.36 40.26 40.42 39.78
MSLP
1022.99 1023.09 1023.22 1023.48 1023.62 1023.72 1023.87 1023.94 1024.23 1024.14 1024.11 1024.29 1024.46 1024.42 1024.58 1024.57 1024.33 1024.38 1024.47 1024.65 1024.49 1024.39 1024.42 1024.54 1024.58 1024.66 1024.74 1024.80 1024.85 1024.66 1024.27 1024.48
1023.45 1023.47 1023.59 1023.59 1023.81 1024.17 1024.32 1024.49 1024.53 1024.60 1024.70 1024.83 1024.92 1024.97 1025.10 1025.13 1024.83 1024.80 1024.92 1024.94 1024.86 1024.81 1024.86 1024.98 1025.04 1025.14 1025.29 1025.35 1025.19 1024.91 1024.64 1024.66
1023.77 1023.86 1023.85 1023.87 1024.02 1024.29 1024.52 1024.67 1024.97 1025.06 1025.07 1025.23 1025.29 1025.56 1025.61 1025.45 1025.50 1025.55 1025.48 1025.40 1025.36 1025.37 1025.40 1025.43 1025.47 1025.64 1025.82 1025.74 1025.49 1025.38 1025.24 1025.22
1023.94 1023.99 1024.09 1024.25 1024.44 1024.66 1024.83 1025.09 1025.13 1025.41 1025.66 1025.39 1025.48 1025.86 1026.16 1026.21 1026.26 1026.14 1026.17 1026.07 1025.98 1025.92 1025.83 1025.92 1025.71 1025.73 1026.08 1026.19 1026.16 1026.16 1025.98 1025.98
1024.31 1024.46 1024.55 1024.57 1024.80 1024.86 1025.03 1025.36 1025.65 1025.82 1026.19 1026.09 1025.90 1025.99 1026.29 1026.27 1026.44 1026.41 1026.42 1026.41 1026.17 1026.14 1026.08 1026.02 1026.15 1026.28 1026.62 1026.74 1026.80 1026.69 1026.72 1026.82
1024.64 1024.63 1024.64 1024.87 1024.88 1025.00 1025.35 1025.45 1025.85 1026.18 1026.57 1026.68 1026.64 1026.54 1026.73 1026.74 1026.73 1026.87 1026.92 1026.90 1026.73 1026.61 1026.65 1026.81 1026.82 1027.05 1027.18 1027.41 1027.50 1027.40 1027.37 1027.53
1024.84 1024.94 1024.83 1025.13 1025.20 1025.36 1025.53 1025.73 1026.13 1026.51 1026.90 1027.16 1027.11 1027.22 1027.34 1027.20 1027.34 1027.33 1027.38 1027.37 1027.19 1027.02 1027.02 1026.99 1027.24 1027.55 1027.77 1027.89 1028.19 1028.40 1028.47 1028.37
1024.98 1025.12 1025.09 1025.32 1025.49 1025.67 1025.83 1026.11 1026.44 1026.68 1027.23 1027.59 1027.71 1027.71 1027.78 1027.79 1027.64 1027.61 1027.71 1027.73 1027.76 1027.45 1027.33 1027.50 1027.76 1028.09 1028.66 1028.84 1028.99 1029.09 1029.27 1029.34
1024.83 1025.24 1025.26 1025.24 1025.56 1025.91 1026.34 1026.46 1026.29 1026.70 1027.32 1027.87 1028.08 1028.19 1028.16 1028.02 1028.07 1028.01 1028.12 1028.06 1028.08 1028.10 1028.27 1028.30 1028.50 1028.92 1029.23 1029.53 1029.78 1030.00 1030.05 1030.05
1024.40 1024.65 1025.14 1025.43 1025.68 1025.94 1026.51 1026.93 1026.76 1026.85 1027.33 1027.97 1028.37 1028.41 1028.40 1028.11 1028.13 1028.14 1028.43 1028.27 1028.30 1028.46 1028.47 1028.72 1029.06 1029.41 1029.90 1030.20 1030.43 1030.66 1030.89 1030.87
1024.11 1024.67 1024.97 1025.38 1025.83 1026.17 1026.56 1026.96 1027.05 1027.42 1027.71 1028.00 1028.45 1028.70 1028.67 1028.34 1028.15 1028.24 1028.26 1028.29 1028.43 1028.63 1029.01 1029.11 1029.58 1030.10 1030.42 1030.90 1031.10 1031.25 1031.34 1031.37
1024.03 1024.55 1025.17 1025.64 1026.05 1026.44 1026.80 1027.03 1027.42 1027.64 1027.81 1028.23 1028.67 1028.81 1028.79 1028.74 1028.85 1028.82 1028.38 1028.39 1028.74 1029.02 1029.40 1029.88 1029.99 1030.34 1030.78 1031.47 1031.89 1032.06 1032.10 1032.12
1023.78 1024.34 1024.84 1025.25 1025.70 1025.94 1026.54 1027.01 1027.42 1027.87 1028.12 1028.24 1028.56 1029.08 1029.19 1028.99 1028.73 1028.84 1028.85 1028.56 1028.98 1029.45 1029.59 1030.04 1030.72 1030.87 1030.72 1031.66 1032.18 1032.44 1032.43 1032.46
1023.38 1023.97 1024.47 1024.85 1025.19 1025.64 1026.01 1026.73 1027.41 1027.68 1028.25 1028.66 1028.64 1028.84 1029.18 1029.30 1029.10 1028.96 1029.16 1029.12 1029.25 1029.50 1029.55 1030.04 1030.73 1031.28 1030.81 1031.14 1031.64 1032.45 1032.70 1032.90
1022.49 1023.43 1024.06 1024.38 1024.78 1025.62 1026.27 1027.06 1027.68 1027.88 1028.23 1028.40 1028.85 1028.89 1029.11 1029.35 1029.48 1029.27 1029.35 1029.19 1029.45 1029.63 1029.87 1030.10 1030.41 1031.29 1031.46 1031.01 1031.09 1030.86 1032.08 1032.87
1021.97 1022.85 1023.56 1024.04 1024.43 1025.03 1025.57 1025.74 1026.38 1026.86 1027.35 1027.81 1028.41 1028.91 1029.14 1029.37 1029.71 1029.52 1029.42 1029.62 1029.74 1029.82 1030.21 1030.26 1030.42 1030.74 1031.27 1031.40 1031.42 1031.23 1031.09 1031.99
1021.66 1022.29 1023.00 1023.51 1023.92 1024.43 1025.15 1025.58 1025.95 1026.40 1027.08 1027.77 1028.24 1028.80 1028.93 1029.28 1029.69 1029.72 1029.66 1029.77 1030.14 1030.38 1030.51 1030.53 1030.38 1030.50 1030.94 1031.45 1031.73 1031.77 1031.90 1031.79
1020.88 1021.39 1021.99 1022.85 1023.40 1023.86 1024.56 1024.87 1025.50 1026.05 1026.71 1027.31 1027.75 1028.10 1028.70 1029.00 1029.38 1029.66 1029.76 1029.89 1030.28 1030.50 1030.63 1030.62 1030.92 1031.29 1031.36 1031.28 1031.24 1031.30 1031.54 1031.63
1019.97 1020.40 1021.09 1022.00 1022.74 1023.24 1023.78 1024.36 1024.92 1025.25 1025.83 1026.33 1026.83 1027.42 1027.92 1028.43 1028.84 1029.42 1029.63 1029.81 1030.23 1030.60 1030.93 1031.07 1031.03 1031.02 1031.31 1031.45 1031.67 1031.70 1031.81 1031.95
1018.71 1019.46 1020.03 1020.93 1021.74 1022.32 1023.16 1023.75 1024.30 1024.65 1025.08 1025.56 1025.96 1026.24 1026.83 1027.75 1028.40 1028.82 1029.09 1029.81 1030.25 1030.45 1030.46 1030.45 1030.93 1031.19 1031.52 1031.55 1031.59 1031.81 1032.03 1032.00
Wind_Speed
9 10 15 15 15 16 14 15 14 15 15 16 16 15 15 15 16 17 17 16 16 17 17 17 18 18 18 17 16 14 14 10
8 10 10 12 12 14 14 14 14 15 15 15 15 16 16 15 14 16 15 16 16 17 18 18 18 18 17 16 13 14 14 13
8 9 10 11 10 10 12 14 14 13 13 15 11 8 10 13 15 15 15 16 16 16 17 17 17 18 17 15 12 9 11 10
8 8 8 8 6 7 8 8 8 8 7 10 8 9 9 9 12 15 15 15 15 15 15 14 11 9 9 11 8 11 10 11
7 7 7 7 6 5 4 5 5 6 7 7 8 7 6 6 4 5 6 10 6 8 8 7 11 9 9 9 11 10 8 9
7 7 8 7 6 5 6 6 6 6 6 7 5 5 6 6 5 5 5 4 7 6 6 9 11 12 11 11 11 9 7 8
7 7 8 7 7 7 7 7 6 7 6 6 5 5 6 5 6 5 5 5 5 6 7 9 10 11 10 11 12 11 11 7
7 7 8 8 7 8 7 7 8 7 6 5 6 5 5 5 6 6 5 4 4 5 7 8 9 10 11 11 11 10 11 10
9 8 9 10 10 9 7 6 8 8 7 6 6 5 6 7 6 6 4 4 6 7 8 9 9 9 12 10 10 11 10 10
10 9 10 10 10 9 7 6 6 7 7 6 6 7 6 6 6 6 4 5 5 6 7 8 8 8 9 8 9 10 10 10
13 12 13 12 10 8 8 8 6 6 6 6 7 6 6 6 6 6 6 6 6 7 7 9 9 9 9 9 8 8 8 7
14 12 13 12 9 8 6 6 6 5 6 6 7 6 7 6 5 5 6 7 7 7 11 8 9 9 10 9 8 7 7 6
15 15 14 12 10 10 7 6 6 5 4 7 7 6 6 6 6 6 5 7 9 10 11 12 9 8 7 7 7 7 7 6
16 17 16 13 10 8 5 7 4 5 4 5 6 7 6 5 6 6 7 8 10 10 9 7 5 2 3 3 4 4 5 5
19 19 18 14 13 8 7 6 5 4 5 5 5 6 6 6 6 6 6 6 6 7 7 7 5 3 1 2 3 2 5 3
19 19 18 15 16 12 15 9 9 6 7 6 6 7 7 6 6 7 7 5 6 5 4 4 4 5 3 3 3 1 3 5
18 18 18 17 16 14 11 10 7 7 7 10 8 7 7 7 6 6 7 6 6 6 5 5 4 4 3 3 2 3 2 2
17 20 19 18 17 16 15 14 11 9 9 9 8 7 6 8 8 6 6 7 7 6 6 6 5 5 3 4 3 2 3 2
18 21 20 19 19 18 17 15 14 14 13 10 11 9 7 9 9 7 6 6 7 6 6 6 6 5 5 4 3 3 3 2
23 22 21 21 20 20 16 16 10 10 12 10 9 10 9 11 9 8 8 8 7 7 6 5 6 5 6 4 4 4 3 3
Wind_Direction
81 91 97 91 87 89 92 91 85 86 87 84 79 75 71 71 75 75 73 72 73 78 84 81 80 78 73 67 64 68 74 66
91 97 105 103 99 85 88 82 85 86 84 80 74 72 73 73 78 76 78 80 80 82 85 85 83 78 73 67 71 71 72 70
98 110 107 107 106 97 95 93 87 86 87 79 76 67 69 71 72 74 78 77 79 87 87 87 86 78 72 69 71 69 72 70
122 121 110 107 105 105 100 96 92 88 90 95 86 76 69 68 67 69 68 71 75 83 88 91 94 93 87 79 78 78 70 71
127 118 114 116 115 115 110 101 101 94 82 81 91 91 82 79 73 62 69 68 78 89 93 88 92 94 88 86 84 80 73 74
135 133 125 122 129 117 115 112 106 94 85 87 87 88 84 85 83 78 74 68 85 92 95 99 99 95 95 90 83 83 84 78
150 141 132 133 126 118 117 115 104 101 94 85 91 94 92 94 90 82 75 77 84 98 109 112 107 99 93 92 86 82 79 74
153 145 138 137 125 122 118 118 116 104 103 92 91 97 106 98 94 86 76 71 81 91 110 114 104 100 89 83 81 78 73 70
154 146 144 138 134 125 123 130 123 116 113 108 104 105 104 102 93 84 77 83 95 98 99 108 105 97 91 86 83 74 71 67
153 158 154 144 139 131 129 134 118 119 124 120 110 104 109 109 104 92 81 85 92 103 112 111 104 100 94 85 82 76 69 66
161 162 157 147 137 130 131 129 115 116 124 120 113 108 103 104 107 104 103 101 103 118 106 114 112 106 98 88 80 76 70 71
165 164 157 147 137 129 126 123 122 129 125 119 124 119 117 111 106 108 104 109 110 111 112 104 108 114 101 86 78 73 71 69
171 166 164 157 155 149 149 146 143 130 132 136 133 129 127 128 117 114 105 111 114 117 120 120 112 121 116 101 88 82 76 73
174 177 170 171 167 166 157 150 153 137 143 142 139 144 141 130 125 114 119 122 127 137 141 132 115 126 131 136 164 147 93 71
180 180 178 177 170 152 133 119 124 145 163 151 155 146 135 135 129 127 122 127 137 140 145 152 145 89 33 309 185 211 156 134
180 180 182 183 175 174 177 177 167 177 170 156 151 154 142 130 133 135 128 118 129 127 147 162 158 154 139 90 52 50 214 172
186 182 187 188 185 185 185 186 176 156 156 156 160 154 146 146 160 146 135 134 121 126 135 144 156 169 172 150 119 93 82 295
188 187 190 192 192 189 195 192 177 165 164 172 169 159 163 171 167 162 145 132 140 145 139 135 116 109 142 167 174 178 156 180
191 191 193 193 195 194 198 202 189 183 178 182 169 171 182 183 171 165 157 151 152 147 134 125 144 156 153 126 122 113 135 129
191 194 195 192 195 199 201 204 200 198 191 185 186 186 182 171 173 169 163 167 164 154 159 158 151 149 146 149 145 140 157 168